Location: LDNL
(36.4545°S, 141.6685°E)
Time: 11:17:02
(UTC+10:00)

A-11 Canister half - Pass Details

Date: 18 August 2022
Orbit: 1524 x 1684 km, 47.3° (Epoch: 26 September)

Event Time Altitude Azimuth Distance (km) Brightness Sun altitude
Rises 17:00:56 0° 287° (WNW) 4,727 13.6 10.7°
Reaches altitude 10° 17:04:06 10° 283° (WNW) 3,731 13.3 10.1°
Maximum altitude 17:13:21 60° 204° (SSW) 1,724 9.5 8.4°
Drops below altitude 10° 17:22:36 10° 124° (SE) 3,714 10.4 6.7°
Sets 17:25:44 0° 120° (ESE) 4,704 10.9 6.1°
